TimeCDT,TemperatureF,Dew PointF,Humidity,Sea Level PressureIn,VisibilityMPH,Wind Direction,Wind SpeedMPH,Gust SpeedMPH,PrecipitationIn,Events,Conditions,WindDirDegrees,DateUTC
12:53 AM,61.0,59.0,93,30.18,4.0,Calm,Calm,-,N/A,,Clear,0,2012-10-05 05:53:00
1:53 AM,60.1,57.9,93,30.17,3.0,Calm,Calm,-,N/A,,Clear,0,2012-10-05 06:53:00
3:53 AM,59.0,55.9,90,30.14,5.0,Calm,Calm,-,N/A,,Clear,0,2012-10-05 08:53:00
4:53 AM,59.0,55.9,90,30.15,5.0,Calm,Calm,-,0.01,,Clear,0,2012-10-05 09:53:00
5:53 AM,57.9,55.9,93,30.17,5.0,Calm,Calm,-,N/A,,Clear,0,2012-10-05 10:53:00
6:53 AM,57.9,55.9,93,30.17,4.0,Calm,Calm,-,N/A,,Clear,0,2012-10-05 11:53:00
7:53 AM,63.0,59.0,87,30.17,6.0,Calm,Calm,-,N/A,,Clear,0,2012-10-05 12:53:00
8:53 AM,69.1,62.1,78,30.17,10.0,Calm,Calm,-,N/A,,Clear,0,2012-10-05 13:53:00
9:53 AM,75.0,64.0,69,30.17,10.0,Calm,Calm,-,N/A,,Clear,0,2012-10-05 14:53:00
10:53 AM,81.0,66.9,62,30.15,10.0,NE,4.6,-,N/A,,Clear,40,2012-10-05 15:53:00
12:53 PM,84.9,68.0,57,30.11,10.0,Variable,3.5,-,N/A,,Scattered Clouds,0,2012-10-05 17:53:00
1:53 PM,84.9,66.0,53,30.07,10.0,ESE,4.6,-,N/A,,Clear,120,2012-10-05 18:53:00
2:53 PM,84.9,64.9,51,30.04,10.0,Calm,Calm,-,N/A,,Partly Cloudy,0,2012-10-05 19:53:00
3:53 PM,84.9,66.9,55,30.02,10.0,Calm,Calm,-,N/A,,Scattered Clouds,0,2012-10-05 20:53:00
4:53 PM,87.1,64.9,48,30.01,10.0,Calm,Calm,-,N/A,,Scattered Clouds,0,2012-10-05 21:53:00
5:53 PM,82.0,66.9,60,30.01,10.0,Calm,Calm,-,N/A,,Clear,0,2012-10-05 22:53:00
6:53 PM,73.9,69.1,85,30.01,10.0,Calm,Calm,-,N/A,,Clear,0,2012-10-05 23:53:00
7:53 PM,71.1,68.0,90,30.03,10.0,Calm,Calm,-,N/A,,Clear,0,2012-10-06 00:53:00
8:53 PM,70.0,68.0,93,30.03,10.0,Calm,Calm,-,N/A,,Partly Cloudy,0,2012-10-06 01:53:00
9:53 PM,69.1,66.9,93,30.04,9.0,Calm,Calm,-,N/A,,Scattered Clouds,0,2012-10-06 02:53:00
10:53 PM,69.1,66.9,93,30.05,10.0,Calm,Calm,-,N/A,,Mostly Cloudy,0,2012-10-06 03:53:00
11:53 PM,69.1,66.0,90,30.04,9.0,Calm,Calm,-,N/A,,Clear,0,2012-10-06 04:53:00